Home > Weather > Kaunas > Past weeks

Flag for Lithuania Past Weather in Kaunas, Lithuania — Yesterday and Last 2 Weeks

Now
64 °F

Partly sunny.


Feels Like: 64 °F
Forecast: 59 / 76 °F
Wind: 8 mph from Southwest

Location: Kaunas

Current Time: Jul 30, 2016 at 8:40:11 AM

Latest Report: Jul 30, 2016 at 8:20 AM


Visibility: N/A

Pressure: 29.83 "Hg

Humidity: 94%

Dew Point: 63 °F

Location of KaunasLocation

Past Weather in Kaunas — Graph

°F

Kaunas Temperature Yesterday

Maximum temperature yesterday: 73 °F (at 5:20 PM)
Minimum temperature yesterday: 61 °F (at 5:50 AM)
Average temperature yesterday: 67 °F

High & Low Weather Summary for the Past Weeks

 TemperatureHumidityPressure
High84 °F (Jul 26, 5:20 PM)100% (Jul 17, 3:20 AM)30.15 "Hg (Jul 17, 3:20 AM)
Low52 °F (Jul 17, 5:20 AM)38% (Jul 20, 2:50 PM)29.62 "Hg (Jul 15, 7:20 AM)
Average66 °F78%29.97 "Hg
* Reported Jul 15 7:20 AM — Jul 30 7:20 AM, Kaunas, Weather by CustomWeather, © 2016

Note: Actual official high and low records may vary slightly from our data, if they occured in-between our weather recording intervals... More about our weather records

Advertising

Kaunas Weather History for the Previous 24 Hours

Scroll right to see more
 ConditionsComfort  
Time TempWeatherWind HumidityBarometerVisibility
7:20 AM
Sat, Jul 30
61 °FSunny.2 mph94%29.83 "Hg10 mi
6:50 AM63 °FSunny.3 mph88%29.83 "Hg10 mi
6:20 AM63 °FPassing clouds.3 mph94%29.83 "HgN/A
5:50 AM63 °FLight rain. Overcast.2 mph94%29.83 "HgN/A
5:20 AM63 °FSprinkles. Partly cloudy.5 mph94%29.83 "HgN/A
4:50 AM63 °FSprinkles. Passing clouds.6 mph94%29.83 "HgN/A
4:20 AM63 °FLight rain. Clear.8 mph94%29.83 "HgN/A
3:50 AM64 °FPassing clouds.6 mph88%29.83 "HgN/A
3:20 AM63 °FOvercast.3 mph94%29.83 "HgN/A
2:50 AM63 °FOvercast.3 mph94%29.80 "HgN/A
2:20 AM61 °FCool.1 mph94%29.80 "HgN/A
1:50 AM63 °FPassing clouds.No wind94%29.80 "HgN/A
1:20 AM63 °FMild.No wind94%29.80 "HgN/A
12:50 AM63 °FMild.1 mph94%29.80 "Hg6 mi
12:20 AM63 °FMostly cloudy.3 mph94%29.83 "HgN/A
11:50 PM
Fri, Jul 29
63 °FPassing clouds.2 mph94%29.83 "HgN/A
11:20 PM64 °FClear.1 mph88%29.83 "Hg10 mi
10:50 PM64 °FClear.2 mph88%29.83 "Hg6 mi
10:20 PM66 °FSunny.2 mph88%29.83 "Hg10 mi
9:50 PM66 °FSunny.2 mph88%29.83 "Hg10 mi
9:20 PM68 °FSunny.2 mph88%29.83 "Hg10 mi
8:50 PM70 °FSunny.2 mph78%29.83 "Hg10 mi
8:20 PM72 °FSunny.2 mph73%29.83 "Hg10 mi
7:50 PM72 °FSunny.3 mph73%29.83 "Hg10 mi
7:20 PM73 °FSunny.1 mph65%29.83 "Hg10 mi
6:50 PM73 °FPassing clouds.3 mph61%29.83 "HgN/A
6:20 PM73 °FClear.2 mph61%29.83 "Hg6 mi
5:50 PM73 °FClear.3 mph61%29.83 "Hg6 mi
5:20 PM73 °FSunny.1 mph57%29.86 "Hg10 mi
4:50 PM72 °FSunny.2 mph69%29.86 "Hg10 mi
4:20 PM72 °FPartly sunny.1 mph69%29.86 "HgN/A
3:50 PM70 °FSunny.1 mph73%29.89 "Hg10 mi
3:20 PM70 °FLight rain. Partly sunny.2 mph78%29.89 "HgN/A
2:50 PM70 °FMore clouds than sun.1 mph73%29.89 "Hg6 mi
2:20 PM70 °FLight rain. Clear.2 mph73%29.89 "HgN/A
1:50 PM70 °FBroken clouds.5 mph78%29.89 "HgN/A
1:20 PM68 °FPartly sunny.2 mph78%29.89 "HgN/A
12:50 PM70 °FLight rain. Broken clouds.2 mph78%29.92 "HgN/A
12:20 PM68 °FOvercast.2 mph78%29.92 "Hg6 mi
11:50 AM68 °FMore clouds than sun.1 mph78%29.92 "HgN/A
11:20 AM68 °FOvercast.2 mph78%29.92 "HgN/A
10:50 AM66 °FBroken clouds.1 mph83%29.92 "HgN/A
10:20 AM66 °FMostly cloudy.2 mph83%29.92 "HgN/A
9:50 AM64 °FBroken clouds.3 mph88%29.92 "HgN/A
9:20 AM64 °FPartly sunny.3 mph88%29.92 "HgN/A
8:50 AM64 °FLow clouds.3 mph88%29.92 "HgN/A
8:20 AM63 °FPartly sunny.5 mph94%29.92 "HgN/A
Weather by CustomWeather, © 2016

See weather overviewHow to use our weather pages